DW9945 Weather Reports


time (UTC)temp
C
wind
direction
speed
KPH
gust
KPH
rain 1hr
cm
rain 24hr
cm
rain mn
cm
humidity
%
barometer
mb
20260506180008 19 269 0.0 3.2 0.00 0.00 0.00 31 1010.1
20260506175506 19 269 3.2 4.8 0.00 0.00 0.00 28 1010.2
20260506175007 19 250 1.6 4.8 0.00 0.00 0.00 29 1010.1
20260506174507 18 0 1.6 4.8 0.00 0.00 0.00 30 1010.2
20260506174007 18 292 3.2 4.8 0.00 0.00 0.00 29 1010.2
20260506173507 18 9 3.2 4.8 0.00 0.00 0.00 29 1010.3
20260506173007 19 299 1.6 4.8 0.00 0.00 0.00 30 1010.4
20260506172507 18 313 3.2 9.7 0.00 0.00 0.00 29 1010.4
20260506172007 19 292 4.8 4.8 0.00 0.00 0.00 29 1010.4
20260506171507 19 282 1.6 4.8 0.00 0.00 0.00 29 1010.3
20260506171007 19 261 3.2 9.7 0.00 0.00 0.00 29 1010.4
20260506170506 19 286 3.2 4.8 0.00 0.00 0.00 30 1010.4
20260506165506 19 234 3.2 4.8 0.00 0.00 0.00 29 1010.5
20260506165007 19 231 3.2 9.7 0.00 0.00 0.00 29 1010.5
20260506164507 18 239 1.6 3.2 0.00 0.00 0.00 29 1010.5
20260506163006 18 122 3.2 4.8 0.00 0.00 0.00 30 1010.6
20260506162506 18 140 6.4 12.9 0.00 0.00 0.00 30 1010.6
20260506162007 18 116 3.2 12.9 0.00 0.00 0.00 30 1010.6
20260506161507 18 147 1.6 11.3 0.00 0.00 0.00 30 1010.6
20260506161006 18 162 4.8 12.9 0.00 0.00 0.00 30 1010.6
20260506160506 18 136 3.2 8.0 0.00 0.00 0.00 30 1010.6
20260506155507 18 133 4.8 12.9 0.00 0.00 0.00 31 1010.5
20260506155006 18 101 4.8 12.9 0.00 0.00 0.00 31 1010.6
20260506153506 19 241 3.2 4.8 0.00 0.00 0.00 31 1010.8
20260506153007 18 328 3.2 8.0 0.00 0.00 0.00 33 1011.0
20260506152506 18 293 4.8 12.9 0.00 0.00 0.00 33 1011.0
20260506152006 18 338 3.2 9.7 0.00 0.00 0.00 30 1011.0
20260506151506 18 301 4.8 8.0 0.00 0.00 0.00 32 1011.0
20260506151007 18 251 1.6 8.0 0.00 0.00 0.00 30 1011.1
20260506150012 18 320 3.2 4.8 0.00 0.00 0.00 33 1011.3
20260506145507 17 213 4.8 8.0 0.00 0.00 0.00 34 1011.4
20260506145006 17 131 1.6 4.8 0.00 0.00 0.00 34 1011.5
20260506144507 17 209 3.2 4.8 0.00 0.00 0.00 34 1011.6
20260506143507 17 211 3.2 12.9 0.00 0.00 0.00 35 1011.6
20260506143007 17 190 1.6 9.7 0.00 0.00 0.00 36 1011.6
20260506142506 17 141 3.2 9.7 0.00 0.00 0.00 35 1011.8
20260506142006 17 174 3.2 8.0 0.00 0.00 0.00 36 1011.8
20260506141507 17 132 3.2 9.7 0.00 0.00 0.00 35 1011.9
20260506141006 18 195 4.8 11.3 0.00 0.00 0.00 35 1011.9
20260506140507 18 42 1.6 12.9 0.00 0.00 0.00 35 1011.9
20260506135506 17 14 3.2 11.3 0.00 0.00 0.00 38 1011.9
20260506135006 17 12 4.8 14.5 0.00 0.00 0.00 39 1012.0
20260506134506 17 325 9.7 16.1 0.00 0.00 0.00 39 1012.0
20260506134007 17 24 4.8 11.3 0.00 0.00 0.00 37 1012.1
20260506133007 17 203 8.0 11.3 0.00 0.00 0.00 36 1012.3
20260506132508 17 189 4.8 9.7 0.00 0.00 0.00 36 1012.3
20260506131506 17 140 3.2 12.9 0.00 0.00 0.00 36 1012.5
20260506131006 17 157 4.8 9.7 0.00 0.00 0.00 37 1012.5
20260506130506 17 60 6.4 12.9 0.00 0.00 0.00 37 1012.5
20260506130007 17 65 6.4 9.7 0.00 0.00 0.00 38 1012.5
20260506125007 16 61 8.0 16.1 0.00 0.00 0.00 37 1012.7
20260506124507 17 87 4.8 11.3 0.00 0.00 0.00 38 1012.8
20260506123507 16 56 3.2 8.0 0.00 0.00 0.00 39 1012.7
20260506123007 17 226 4.8 11.3 0.00 0.00 0.00 38 1012.8
20260506122507 17 285 8.0 11.3 0.00 0.00 0.00 42 1012.8
20260506122007 16 289 3.2 4.8 0.00 0.00 0.00 40 1012.9
20260506121006 16 266 3.2 12.9 0.00 0.00 0.00 42 1013.2
20260506120506 16 324 9.7 16.1 0.00 0.00 0.00 42 1013.2
20260506120007 16 114 4.8 9.7 0.00 0.00 0.00 42 1013.1
20260506115506 16 20 4.8 9.7 0.00 0.00 0.00 44 1013.2
20260506115007 16 155 4.8 11.3 0.00 0.00 0.00 43 1013.2
20260506114507 15 116 8.0 14.5 0.00 0.00 0.00 43 1013.2
20260506113506 15 19 8.0 12.9 0.00 0.00 0.00 44 1013.3
20260506113007 16 68 8.0 12.9 0.00 0.00 0.00 44 1013.3
20260506112507 15 233 1.6 8.0 0.00 0.00 0.00 43 1013.4
20260506111507 15 102 6.4 14.5 0.00 0.00 0.00 44 1013.5
20260506111007 15 112 8.0 16.1 0.00 0.00 0.00 44 1013.5
20260506110007 15 11 1.6 8.0 0.00 0.00 0.00 47 1013.5
20260506105506 15 14 1.6 9.7 0.00 0.00 0.00 47 1013.6
20260506105006 15 23 4.8 16.1 0.00 0.00 0.00 47 1013.6
20260506104006 14 292 4.8 9.7 0.00 0.00 0.00 46 1013.4
20260506103506 14 337 3.2 9.7 0.00 0.00 0.00 45 1013.5
20260506103006 14 69 8.0 16.1 0.00 0.00 0.00 48 1013.6
20260506102507 13 52 4.8 16.1 0.00 0.00 0.00 52 1013.6
20260506102008 13 333 9.7 14.5 0.00 0.00 0.00 51 1013.7
20260506101008 13 27 4.8 12.9 0.00 0.00 0.00 51 1013.9
20260506100508 13 11 4.8 11.3 0.00 0.00 0.00 52 1013.9
20260506100008 13 154 8.0 12.9 0.00 0.00 0.00 51 1013.9
20260506095508 13 356 3.2 8.0 0.00 0.00 0.00 52 1013.9
20260506095008 13 9 4.8 14.5 0.00 0.00 0.00 52 1013.9
20260506094008 13 64 3.2 9.7 0.00 0.00 0.00 53 1014.0
20260506093508 13 45 3.2 19.3 0.00 0.00 0.00 54 1013.9
20260506093008 13 133 9.7 14.5 0.00 0.00 0.00 53 1013.9
20260506092508 13 11 3.2 9.7 0.00 0.00 0.00 56 1013.9
20260506092008 13 148 4.8 11.3 0.00 0.00 0.00 53 1013.9
20260506091508 13 64 6.4 12.9 0.00 0.00 0.00 54 1013.9
20260506091008 12 43 4.8 11.3 0.00 0.00 0.00 54 1014.0
20260506090008 12 104 8.0 12.9 0.00 0.00 0.00 57 1014.1
20260506085508 12 107 11.3 14.5 0.00 0.00 0.00 56 1014.1
20260506085008 12 68 6.4 14.5 0.00 0.00 0.00 59 1014.0
20260506084508 12 123 8.0 16.1 0.00 0.00 0.00 59 1013.9
20260506083508 12 62 4.8 16.1 0.00 0.00 0.00 60 1013.9
20260506083008 12 60 6.4 11.3 0.00 0.00 0.00 60 1014.0
20260506082508 11 104 9.7 16.1 0.00 0.00 0.00 62 1013.9
20260506080508 11 58 3.2 8.0 0.00 0.00 0.00 67 1014.1
20260506073008 10 96 4.8 4.8 0.00 0.00 0.00 69 1014.0
20260506072507 10 41 3.2 8.0 0.00 0.00 0.00 70 1014.1
20260506072008 10 26 4.8 11.3 0.00 0.00 0.00 70 1014.0
20260506071508 9 47 4.8 12.9 0.00 0.00 0.00 72 1014.0
20260506071008 9 11 6.4 14.5 0.00 0.00 0.00 73 1014.0
20260506070508 8 41 4.8 12.9 0.00 0.00 0.00 74 1014.0
20260506062508 7 10 4.8 8.0 0.00 0.00 0.00 79 1013.6
20260506062008 7 14 4.8 11.3 0.00 0.00 0.00 79 1013.6
20260506061508 7 5 6.4 8.0 0.00 0.00 0.00 79 1013.6
20260506061007 7 350 4.8 8.0 0.00 0.00 0.00 79 1013.6
20260506060508 7 15 4.8 11.3 0.00 0.00 0.00 78 1013.6
20260506051008 6 11 8.0 12.9 0.00 0.00 0.00 82 1013.0
20260506050508 6 4 8.0 12.9 0.00 0.00 0.00 81 1013.0
20260506045008 6 13 8.0 12.9 0.00 0.00 0.00 81 1013.0
20260506044508 6 11 8.0 14.5 0.00 0.00 0.00 82 1012.9
20260506044008 6 14 8.0 12.9 0.00 0.00 0.00 82 1012.9
20260506043508 6 7 6.4 12.9 0.00 0.00 0.00 82 1012.9
20260506043007 6 6 4.8 11.3 0.00 0.00 0.00 82 1013.0
20260506042507 6 1 8.0 9.7 0.00 0.00 0.00 82 1013.0
20260506041508 5 20 4.8 11.3 0.00 0.00 0.00 83 1012.9
20260506041007 5 15 4.8 8.0 0.00 0.00 0.00 83 1012.8
20260506040508 5 8 3.2 8.0 0.00 0.00 0.00 83 1012.9
20260506040008 5 352 4.8 8.0 0.00 0.00 0.00 83 1012.9
20260506035508 6 352 4.8 8.0 0.00 0.00 0.00 82 1012.9
20260506035007 6 5 4.8 8.0 0.00 0.00 0.00 82 1012.9
20260506034508 6 21 4.8 8.0 0.00 0.00 0.00 81 1013.0
20260506034008 6 11 4.8 4.8 0.00 0.00 0.00 81 1013.0
20260506033508 6 354 4.8 8.0 0.00 0.00 0.00 82 1013.1
20260506033008 6 24 3.2 4.8 0.00 0.00 0.00 82 1013.1
20260506032007 6 25 3.2 9.7 0.00 0.00 0.00 82 1013.3
20260506031508 6 349 6.4 9.7 0.00 0.00 0.00 81 1013.3
20260506031008 6 6 4.8 8.0 0.00 0.00 0.00 81 1013.2
20260506030507 6 355 6.4 11.3 0.00 0.00 0.00 81 1013.2
20260506030008 6 3 4.8 9.7 0.00 0.00 0.00 81 1013.3
20260506025508 6 1 6.4 11.3 0.00 0.00 0.00 81 1013.3
20260506025008 6 359 6.4 9.7 0.00 0.00 0.00 80 1013.2
20260506024508 6 358 4.8 9.7 0.00 0.00 0.00 79 1013.2
20260506024007 6 0 4.8 8.0 0.00 0.00 0.00 80 1013.2
20260506023008 6 10 4.8 4.8 0.00 0.00 0.00 80 1013.2
20260506022508 6 15 0.0 4.8 0.00 0.00 0.00 79 1013.2
20260506021508 7 4 4.8 8.0 0.00 0.00 0.00 78 1013.1
20260506021007 7 24 4.8 8.0 0.00 0.00 0.00 78 1013.2
20260506020507 7 27 3.2 9.7 0.00 0.00 0.00 78 1013.2
20260506020008 7 25 3.2 8.0 0.00 0.00 0.00 78 1013.1
20260506015007 7 16 4.8 11.3 0.00 0.00 0.00 78 1013.1
20260506014508 6 31 4.8 8.0 0.00 0.00 0.00 79 1013.2
20260506014008 6 32 4.8 4.8 0.00 0.00 0.00 79 1013.2
20260506013508 6 19 3.2 4.8 0.00 0.00 0.00 78 1013.1
20260506013008 7 18 1.6 4.8 0.00 0.00 0.00 78 1013.2
20260506012507 7 26 3.2 4.8 0.00 0.00 0.00 78 1013.3
20260506012007 7 14 1.6 4.8 0.00 0.00 0.00 79 1013.2
20260506011008 6 26 3.2 4.8 0.00 0.00 0.00 79 1013.2
20260506010509 6 15 3.2 4.8 0.00 0.00 0.00 79 1013.3
20260506005518 7 13 4.8 8.0 0.00 0.00 0.00 79 1013.3
20260506005018 7 27 3.2 4.8 0.00 0.00 0.00 78 1013.3
20260506004518 7 16 3.2 4.8 0.00 0.00 0.00 78 1013.3
20260506004018 7 8 1.6 4.8 0.00 0.00 0.00 77 1013.3
20260506003518 7 357 3.2 4.8 0.00 0.00 0.00 76 1013.3
20260506003019 7 34 3.2 4.8 0.00 0.00 0.00 76 1013.4
20260506002018 7 36 0.0 4.8 0.00 0.00 0.00 77 1013.5
20260506001519 7 23 0.0 4.8 0.00 0.00 0.00 77 1013.5
20260506001018 7 23 3.2 4.8 0.00 0.00 0.00 77 1013.6
20260506000522 7 16 3.2 4.8 0.00 0.00 0.00 76 1013.5
20260506000018 7 15 4.8 11.3 0.00 0.00 0.00 75 1013.5
20260505235520 7 11 3.2 4.8 0.00 0.00 0.00 74 1013.5
20260505235007 7 5 3.2 4.8 0.00 0.00 0.00 75 1013.5
20260505234519 7 15 0.0 4.8 0.00 0.00 0.00 75 1013.6
20260505234018 7 357 3.2 4.8 0.00 0.00 0.00 75 1013.7
20260505233518 7 8 3.2 8.0 0.00 0.00 0.00 75 1013.7
20260505232518 8 347 4.8 4.8 0.00 0.00 0.00 73 1013.6
20260505232018 8 5 0.0 0.0 0.00 0.00 0.00 73 1013.6
20260505231518 8 5 1.6 4.8 0.00 0.00 0.00 72 1013.5
20260505231018 8 4 3.2 4.8 0.00 0.00 0.00 70 1013.3
20260505230018 8 76 4.8 12.9 0.00 0.00 0.00 71 1013.4
20260505225518 8 61 4.8 11.3 0.00 0.00 0.00 71 1013.4
20260505225018 8 355 8.0 14.5 0.00 0.00 0.00 72 1013.3
20260505224518 8 357 9.7 12.9 0.00 0.00 0.00 71 1013.3
20260505223519 9 2 6.4 12.9 0.00 0.00 0.00 68 1013.3
20260505223018 10 47 6.4 12.9 0.00 0.00 0.00 66 1013.3
20260505222519 10 28 8.0 14.5 0.00 0.00 0.00 66 1013.2
20260505222007 10 29 9.7 19.3 0.00 0.00 0.00 66 1013.2
20260505221518 10 357 12.9 19.3 0.00 0.00 0.00 67 1013.2
20260505221018 10 1 12.9 25.7 0.00 0.00 0.00 65 1013.2
20260505220519 10 358 16.1 22.5 0.00 0.00 0.00 64 1013.2
20260505220018 10 352 19.3 25.7 0.00 0.00 0.00 63 1013.2
20260505215019 10 342 14.5 19.3 0.00 0.00 0.00 61 1013.1
20260505214519 10 343 11.3 19.3 0.00 0.00 0.00 60 1013.2
20260505214018 10 338 12.9 14.5 0.00 0.00 0.00 59 1013.2
20260505213519 10 326 9.7 12.9 0.00 0.00 0.00 60 1013.2
20260505213018 10 329 6.4 9.7 0.00 0.00 0.00 63 1013.1
20260505212018 10 333 8.0 12.9 0.00 0.00 0.00 60 1013.0
20260505211518 10 340 8.0 8.0 0.00 0.00 0.00 61 1013.1
20260505211018 10 345 8.0 8.0 0.00 0.00 0.00 62 1013.1
20260505210508 10 336 4.8 8.0 0.00 0.00 0.00 61 1013.0
20260505210018 10 346 8.0 8.0 0.00 0.00 0.00 60 1013.1
20260505205518 10 357 3.2 4.8 0.00 0.00 0.00 60 1013.1
20260505205018 10 359 3.2 8.0 0.00 0.00 0.00 60 1013.1
20260505204518 10 15 6.4 8.0 0.00 0.00 0.00 59 1013.1
20260505204018 11 3 4.8 4.8 0.00 0.00 0.00 57 1013.0
20260505203518 11 13 4.8 8.0 0.00 0.00 0.00 57 1013.1
20260505203018 11 8 3.2 8.0 0.00 0.00 0.00 57 1012.9
20260505202518 11 318 8.0 9.7 0.00 0.00 0.00 54 1012.8
20260505201518 12 321 12.9 16.1 0.00 0.00 0.00 50 1012.8
20260505201019 12 322 14.5 16.1 0.00 0.00 0.00 51 1012.8
20260505200018 12 338 9.7 12.9 0.00 0.00 0.00 50 1012.7
20260505195518 12 326 9.7 12.9 0.00 0.00 0.00 48 1012.5
20260505195018 12 332 9.7 14.5 0.00 0.00 0.00 49 1012.5
20260505194018 12 317 8.0 12.9 0.00 0.00 0.00 50 1012.2
20260505193518 12 336 9.7 14.5 0.00 0.00 0.00 49 1012.1
20260505193018 13 329 11.3 14.5 0.00 0.00 0.00 48 1012.3
20260505192518 13 325 12.9 14.5 0.00 0.00 0.00 46 1012.2
20260505192017 13 324 12.9 14.5 0.00 0.00 0.00 45 1012.1
20260505191518 13 319 12.9 16.1 0.00 0.00 0.00 44 1012.1
20260505190519 14 317 11.3 14.5 0.00 0.00 0.00 42 1012.0
20260505190018 14 318 11.3 14.5 0.00 0.00 0.00 41 1011.9
20260505184508 15 311 14.5 22.5 0.00 0.00 0.00 38 1011.7
20260505183519 15 310 17.7 27.4 0.00 0.00 0.00 37 1011.7
20260505183018 16 301 16.1 24.1 0.00 0.00 0.00 37 1011.7
20260505182518 16 291 16.1 24.1 0.00 0.00 0.00 36 1011.6
20260505182017 16 292 14.5 27.4 0.00 0.00 0.00 36 1011.6
20260505181518 16 328 14.5 24.1 0.00 0.00 0.00 38 1011.6
20260505180518 16 319 14.5 27.4 0.00 0.00 0.00 37 1011.6